sat.trackr.live / text

‹ back to catalog

STARLINK-31992

NORAD 60023 · 2024-111H

PAYLOAD ACTIVE UNKNOWN

§ Identity

Operator
Country
US
Launch date
2024-06-08
Launch site
AFETR
Launch vehicle
Mass (kg)
RCS (m²)

Purposes: comms

External: N2YO · Heavens-Above · Gunter

§ Orbital elements

Epoch: 2026-05-25T02:38:28.929120Z

Period
94.11 min
Inclination
53.1606°
Eccentricity
0.0001236
Mean motion
15.30194587 rev/d
Perigee alt
474.4 km
Apogee alt
476.1 km
Semi-major
6,853.4 km
B*
1.3257e-5
RAAN
80.6753°
Arg perigee
86.4992°
Mean anomaly
273.6150°
Rev number
11,074

§ Raw data

STARLINK-319921 60023U 24111H   26145.11005705  .00000033  00000+0  13257-4 0  99942 60023  53.1606  80.6753 0001236  86.4992 273.6150 15.30194587110743

JSON: /api/v1/satellites/60023 · /tle

For live sub-satellite position, see the globe view (requires WebGL).

§ Visibility from observer

Set your observer location to see the next 7 days of passes ≥ 10°. The values pass through the URL so the page stays shareable.

No JS? Fill the form by hand. The geolocation button needs JavaScript.